Regional Weather Roundup
Issued by NWS

Home | Current Version | Previous Version | Text Only | Print | Product List | Glossary Off
Versions: 1 2 3 4 5 6 7 8 9 10 11 12 13 14 15 16 17 18 19 20 21 22 23 24 25 26 27 28 29 30 31 32 33 34 35 36 37 38 39 40 41 42 43 44 45 46 47 48 49 50

000
ASUS43 KDTX 010401
RWRMI
MICHIGAN HOURLY REGIONAL WEATHER ROUNDUP
NATIONAL WEATHER SERVICE DETROIT/PONTIAC MI
1100 PM EST SAT JAN 31 2015

NOTE: "FAIR" INDICATES FEW OR NO CLOUDS BELOW 12,000 FEET WITH NO
SIGNIFICANT WEATHER AND/OR OBSTRUCTION TO VISIBILITY.

MIZ047>049-052>055-059>063-066>070-074>076-081>083-010500-
SOUTHEAST LOWER MICHIGAN

CITY           SKY/WX    TMP DP  RH WIND       PRES   REMARKS
ADRIAN         CLOUDY    30  25  81 W3        30.17F
ALMA           CLOUDY    27  22  82 N9        30.20S WCI  18
ANN ARBOR      CLOUDY    31  25  78 W3        30.16F
BAD AXE        CLOUDY    26  20  77 N10       30.19S WCI  16
CARO           CLOUDY    27  21  79 N7        30.19S WCI  19
DETROIT CITY   CLOUDY    34  24  67 W3        30.17F
DETROIT        CLOUDY    31  25  78 S3        30.18S
FLINT          CLOUDY    32  24  72 N7        30.17F WCI  26
GROSSE ILE     CLOUDY    32  27  80 CALM      30.16F
HILLSDALE      CLOUDY    31  25  77 CALM      30.14S
HOWELL         CLOUDY    31  26  81 NW3       30.15F

CITY           SKY/WX    TMP DP  RH WIND       PRES   REMARKS
JACKSON        CLOUDY    31  23  72 CALM      30.15F
LAMBERTVILLE   CLOUDY    32  27  80 CALM      30.18S
LANSING        CLOUDY    31  25  78 N6        30.17F WCI  25
LAPEER         CLOUDY    29  24  79 N9        30.17S WCI  21
MASON          CLOUDY    31  25  78 NW3       30.16S
MONROE         CLOUDY    32  27  80 SW3       30.16F
MT. CLEMENS    CLOUDY    29  26  86 CALM      30.15F
PONTIAC        CLOUDY    30  22  72 NW5       30.15S WCI  25
PORT HOPE        N/A     27  19  72 N8        30.19R WCI  19
PORT HURON     CLOUDY    28  25  86 CALM      30.18S
TRI CITIES     CLOUDY    28  20  71 N8        30.21S WCI  20
TROY           CLOUDY    34  24  65 CALM      30.18S
SAGINAW HB     CLOUDY    28  23  80 N7        30.20R WCI  21
$$
MIZ043>046-050>051-056>058-064>065-071>073-077>080-010500-
SOUTHWEST LOWER MICHIGAN

CITY           SKY/WX    TMP DP  RH WIND       PRES   REMARKS
BATTLE CREEK   CLOUDY    32  24  72 CALM      30.15F
BENTON HARBOR  LGT SNOW  30  28  92 CALM      30.16F FOG
BIG RAPIDS     CLOUDY    25  20  83 N10       30.19R WCI  15
COLDWATER      CLOUDY    31  27  86 CALM      30.15F
FREMONT        CLOUDY    27  21  78 NE6       30.18F WCI  20
HOLLAND        CLOUDY    31  23  72 N7        30.17F WCI  24
GRAND RAPIDS   FLURRIES  30  23  75 N6        30.17F WCI  24
IONIA          CLOUDY    31  26  80 N5        30.16S WCI  26
KALAMAZOO      LGT SNOW  31  25  78 CALM      30.16F
LUDINGTON      CLOUDY    26  17  70 NE9G17    30.22S WCI  16
MARSHALL       CLOUDY    28  24  84 CALM      30.15S
MOUNT PLEASANT CLOUDY    27  20  76 N6        30.20S WCI  20
MUSKEGON       CLOUDY    29  22  75 NE10      30.19F WCI  20
SOUTH HAVEN    LGT SNOW  32  27  83 CALM      30.17S
$$
MIZ016>042-010500-
NORTHERN LOWER MICHIGAN

CITY           SKY/WX    TMP DP  RH WIND       PRES   REMARKS
ALPENA         LGT SNOW  16  11  80 NW8       30.25R WCI   5
BEAVER ISLAND  MOCLDY    13   8  77 CALM      30.29R
BELLAIRE       CLOUDY    18   8  67 N8        30.28R WCI   7
CADILLAC       CLOUDY    17  10  73 N9        30.20R WCI   6
CHARLEVOIX     CLOUDY    17   9  70 N13       30.31R WCI   3
FRANKFORT      CLOUDY    21  13  72 NE3       30.26S
GAYLORD        MOCLDY    12   6  77 VRB6      30.21R WCI   3
GRAYLING       MOCLDY    16   9  74 N10       30.23R WCI   3
HARBOR SPRINGS MOCLDY    13   4  67 CALM      30.27R
HOUGHTON LAKE  CLOUDY    19  12  74 N8        30.21R WCI   9
MANISTEE       CLOUDY    23  12  63 NE10      30.25R WCI  12
OSCODA         CLOUDY    22  14  70 N12G17    30.22R WCI  11
PELLSTON       CLOUDY    13   5  70 NW7       30.27R WCI   3
TRAVERSE CITY  CLOUDY    20  12  71 NE8       30.26R WCI  10
$$
MIZ007>008-015-010500-
EASTERN UPPER MICHIGAN

CITY           SKY/WX    TMP DP  RH WIND       PRES   REMARKS
KINROSS        PTCLDY     7   0  72 N8        30.28R WCI  -6
MACKINAC ISLAN MOCLDY    12   4  70 N10G16    30.27R WCI  -1
NEWBERRY       CLOUDY    12   7  79 N10       30.26R WCI  -1
S. S. MARIE    PTCLDY     5  -4  66 N6        30.30R WCI  -6
$$
MIZ004>006-011>014-085-010500-
CENTRAL UPPER MICHIGAN

CITY           SKY/WX    TMP DP  RH WIND       PRES   REMARKS
MANISTIQUE     CLOUDY    12   9  88 N3        30.29R
ESCANABA       MOCLDY    10   1  67 NW6       30.32S WCI   1
MENOMINEE      CLOUDY    14   3  62 NE15      30.29S WCI  -1
SAWYER-GWINN   LGT SNOW   9   5  83 N9        30.26F WCI  -4
$$
MIZ001>003-009>011-084-010500-
WESTERN UPPER MICHIGAN

CITY           SKY/WX    TMP DP  RH WIND       PRES   REMARKS
IRON MOUNTAIN  PTCLDY     9  -1  64 NE9       30.29R WCI  -4
HOUGHTON       LGT SNOW   5  -1  76 NE9       30.33S WCI  -9
COPPER HARBOR    N/A     12   5  73 NE16G28   30.37S WCI  -5
IRONWOOD       CLOUDY    10   7  85 NE8       30.26S WCI  -1
$$

ABBREVIATIONS USED IN REMARKS
   TC - TEMPERATURE IN CELSIUS
  WCI - WIND CHILL INDEX
   HX - HEAT INDEX
  VSB - VISIBILITY




USA.gov is the U.S. government's official web portal to all federal, state and local government web resources and services.